Regional Weather Roundup
Issued by NWS Charleston, SC

Current Version | Previous Version | Text Only | Print | Product List | Glossary Off
Versions: 1 2 3 4 5 6 7 8 9 10 11 12 13 14 15 16 17 18 19 20 21 22 23 24 25 26 27 28 29 30 31 32 33 34 35 36 37 38 39 40 41 42 43 44 45 46 47 48 49 50

000
ASUS42 KCHS 051912
RWRCHS

REGIONAL WEATHER ROUNDUP
NATIONAL WEATHER SERVICE CHARLESTON SC
300 PM EDT SUN JUL 05 2015

NOTE: "FAIR" INDICATES FEW OR NO CLOUDS BELOW 12,000 FEET WITH NO
SIGNIFICANT WEATHER AND/OR OBSTRUCTIONS TO VISIBILITY.

NOT ALL STATIONS ARE QUALITY CONTROLLED BY THE NATIONAL
WEATHER SERVICE. USE DATA WITH CAUTION...ESPECIALLY
DEWPOINT OBSERVATIONS.

SCZ027-030-031-034>040-042>050-052000-
...SOUTHEAST SOUTH CAROLINA...

CITY           SKY/WX    TMP DP  RH WIND       PRES   REMARKS
N CHARLESTON   MOSUNNY   90  71  53 S14       30.11F HX  96
WATERFRONT PAR   N/A     84  76  77 S10       30.10F HX  93
MOUNT PLEASANT LGT RAIN  88  75  66 S12G17    30.13F HX  97
JOHNS ISLAND   FAIR      86  77  74 S14       30.13F HX  97
PINOPOLIS      NOT AVBL
MONCKS CORNER  FAIR      90  70  51 S5        30.10F HX  95
SUMMERVILLE    TSTM      77  77 100 CALM      30.12F
BEAUFORT MCAS  PTSUNNY   78  74  87 S3        30.13F THUNDER
BEAUFORT ARPT  FAIR      81  72  74 CALM      30.13S
HILTON HEAD IS PTSUNNY   84  75  74 CALM      30.14F HX  92
WALTERBORO     TSTM      73  72  94 CALM      30.13F
ALLENDALE      FAIR      90  70  51 VRB7      30.10F HX  95

...SOUTHERN MIDLANDS AND PEE DEE...

CITY           SKY/WX    TMP DP  RH WIND       PRES   REMARKS
GEORGETOWN     NOT AVBL
KINGSTREE      NOT AVBL
ORANGEBURG     PTSUNNY   88  67  49 SW7       30.10F HX  91
BARNWELL       FAIR      90  70  51 SW8       30.11F HX  95
AIKEN          NOT AVBL
MANNING        FAIR      88  63  42 S7        30.10F
COLUMBIA       PTSUNNY   89  67  47 SW10      30.08F HX  92
SUMTER         MOSUNNY   90  69  50 S9G21     30.08F HX  94
FLORENCE       PTSUNNY   90  69  50 S14       30.10S HX  94
MYRTLE BEACH   MOSUNNY   88  73  62 S17       30.14S HX  96
N MYRTLE BEACH SUNNY     85  75  72 S15       30.13F HX  93

$$

GAZ063-065-086>088-099>101-113>116-118-119-134>141-150-052000-
...SOUTHEAST GEORGIA...

CITY           SKY/WX    TMP DP  RH WIND       PRES   REMARKS
SAVANNAH ARPT  TSTM      75  70  83 NE12      30.11F
HUNTER AAF     PTSUNNY   85  73  66 VRB2      30.10S HX  91
FORT STEWART   MOSUNNY   89  72  56 SW5       30.09F HX  96
STATESBORO     NOT AVBL
SYLVANIA       PTCLDY    89  73  59 W6        30.12F HX  97
CLAXTON        FAIR      88  72  58 SW5       30.11F HX  94

...CSRA...CENTRAL AND FAR SOUTHEAST GEORGIA...

CITY           SKY/WX    TMP DP  RH WIND       PRES   REMARKS
THOMSON        MOSUNNY   87  72  61 SW3       30.14F HX  94
AUGUSTA-BUSH   MOSUNNY   89  67  47 SW15      30.09F HX  92
AUGUSTA-DANIEL PTSUNNY   84  73  69 SW10      30.11F HX  90
SWAINSBORO     MOCLDY    90  72  55 W7        30.12F HX  96
VIDALIA        TSTM      84  70  61 W12       30.13S
EASTMAN        DRIZZLE   80  70  70 W8        30.17F
HAZLEHURST     TSTM      73  73 100 CALM      30.16S
ALMA           HVY RAIN  72  72 100 NW5       30.18S VSB 3/4
WAYCROSS       TSTM      74  74  99 NW20G38   30.09F VSB 3/4
JESUP          MOCLDY    90  73  58 NW13G18   30.13R HX  98
BAXLEY         TSTM      73  72  94 CALM      30.19R
BRUNSWICK      SUNNY     91  73  55 SE9       30.11F HX 100
SAINT SIMONS   SUNNY     85  74  69 SE15      30.12F HX  92

$$

SCZ027-028-034-036>038-045-046-048>050-GAZ119-141-052000-
...LAKE AND SUPPLEMENTAL COASTAL OBSERVATIONS...

STATION/POSITION TIME  TEMP    WIND        PRES    WAVE   SWELL
                       AIR SEA DIR/SP/G            HT/PER HT/PER/DIR
                 (UTC) (F)     (DEG/KT/KT) (MB)    (FT/S) (FT/S/D)
UPR LAKE MARION  NOT AVBL
WINYAH BAY       1745   87     230/  6     1019.0
LAKE MURRAY      1800   85     220/ 11/ 13 1018.6F
ACE BASIN NERRS  NOT AVBL
FORT PULASKI     1800   85 83  150/  6/ 12 1020.8F
SAPELO ISLAND    1800   89     130/  6     1020.0F

$$

ANZ835-935-AMZ111-154-330-350-352-354-370-450-454-472-052000-
...C-MAN AND BUOY OBSERVATIONS...

STATION/POSITION TIME  TEMP    WIND        PRES    WAVE   SWELL
                       AIR SEA DIR/SP/G            HT/PER HT/PER/DIR
                 (UTC) (F)     (DEG/KT/KT) (MB)    (FT/S) (FT/S/D)
BUOY 41004       1850   82 83  190/ 12/ 16 1020.6F   3/ 9   2/ 9
BUOY 41008       1850   79 80  170/ 10/ 12 1020.8F   2/ 8   2/110/ 8
FOLLY BEACH CMAN 1800   83     200/ 11/ 12 1020.9F
CAPERS NEARSHORE 1808   82     200/ 12/ 14 1021.1F
FRIPP NEARSHORE  1800   82     190/ 10/ 12 1020.6S


STATION/POSITION TIME  TEMP    WIND        PRES    WAVE   SWELL
                       AIR SEA DIR/SP/G            HT/PER HT/PER/DIR
                 (UTC) (F)     (DEG/KT/KT) (MB)    (FT/S) (FT/S/D)
5E ST. MARYS GA  1821      79                N/A     2/10
FRYING PAN BUOY  1850   81 80  190/ 10/ 12 1021.3F   3/ 8   2/130/ 8
BUOY 41025       1850   81 81  220/ 12/ 14 1020.6F   3/ 5   2/140/ 9
CAPE LOOKOUT NC  1800   82     200/ 11/ 15 1020.6F
BUOY 41002       1850   80 80  200/ 10/ 12 1023.1F   4/ 9   3/150/ 9
BUOY 41010       1820   77 84   30/ 10/ 12 1023.0F
ST AUGUSTINE FL  1900   78 76  130/ 11/ 12 1021.2F


$$



USA.gov is the U.S. government's official web portal to all federal, state and local government web resources and services.